COSMOS 2520 (42907 NORAD) Tracking and Keplerian Element Data

This shows tracking and keplerian element data for the satellite.

Feedback or suggestion? Click here.




ElementValue
Catalog42907
NameCOSMOS 2520
Epoch Orbit339
Epoch Day198.98197096
Epoch Year2018
RAAN71.9689
Inclination0.0131
Eccentricity0.0001581
Argument of Perigee136.1581
Mean Anonmoly126.0964
Mean Motion1.00271649
Decay Rate1.17E-06
L11 42907U 17046A 18198.98197096 .00000117 00000-0 00000-0 0 9995
L22 42907 0.0131 71.9689 0001581 136.1581 126.0964 1.00271649 3392

Live tracking and technical data element details for COSMOS 2520 (NORAD 42907). COSMOS 2520 can be tracked NOW for your location showing map with azimuth and elevation plus other details from your city location.

Track the satellite on the map from your city or location and see movement details for azimuth, elevation, latitude, longitude, range, height, and movement on the map or in text.







IsCatalogInMostPopularTable: catalog: 42907, numindb: 96
Update: records affected: 1



GetName: 42907 COSMOS 2520

Hit Count: updated at: Thu, 19 Jul 2018 03:38:40 GMT